User: anonymous   Login
Location: Columbia
(38.9520°N, 92.3340°W)
Time: 22:30:22
(UTC-05:00)
Language:

Cosmos 2100 Rocket - Orbit

View from above orbital plane
View from above orbital plane
View from above satellite
View from above satellite

Ground track
Ground track

The orbit data is extracted from the following two-line orbital elements,

1 20805U 90083B   17290.30159995 +.00000103 +00000-0 +89829-4 0  9999
2 20805 082.9366 330.3012 0031676 054.3952 355.2835 13.75831832359924
Epoch (UTC): 17 October 2017 07:14:18
Eccentricity: 0.0031676
inclination: 82.9366°
perigee height: 955 km
apogee height: 1002 km
right ascension of ascending node: 330.3012°
argument of perigee: 54.3952°
revolutions per day: 13.75831832
mean anomaly at epoch: 355.2835°
orbit number at epoch: 35992

The dashed part of the orbit path shows where the satellite is in the earth's shadow,  

DLR